RH
44 45 45 48 46 43 40 42 42 44 48 50 50 51 52 55 55 59 60 64 73 72 66 66 65 62 65 66 67 68 72 78 92 71 60 56 59 60 58 63 62 56 53
45 48 46 46 42 38 36 38 45 48 51 52 52 54 54 55 57 58 64 73 73 64 59 57 55 50 64 60 63 65 67 66 75 89 68 64 64 60 60 64 59 51 57
46 46 44 41 36 34 33 38 44 48 52 51 53 56 54 53 54 52 52 51 52 52 52 52 55 62 74 74 67 68 68 61 68 78 77 65 64 61 66 62 60 61 55
46 44 41 38 35 34 35 40 45 49 53 56 56 54 53 52 47 49 46 50 50 52 60 62 63 64 73 75 77 80 78 85 84 84 82 73 68 61 67 74 74 70 73
44 43 39 37 36 38 52 62 64 62 54 54 56 55 51 54 51 54 47 68 75 71 66 61 58 60 66 66 69 79 89 93 91 90 85 74 70 66 67 64 68 70 68
44 43 35 44 54 64 71 71 73 75 74 72 72 70 69 55 60 64 67 79 76 66 65 59 56 63 62 65 64 66 68 82 93 93 85 83 70 60 59 62 68 82 90
57 58 55 58 62 69 74 76 76 74 70 70 70 71 70 68 69 70 70 69 73 71 65 60 56 50 62 59 68 69 68 69 65 62 78 81 76 69 67 72 76 76 78
62 61 62 62 68 76 76 76 76 80 81 79 76 72 70 69 70 69 70 74 78 70 64 64 65 66 68 72 77 87 83 81 79 80 68 59 55 63 68 64 68 71 69
60 62 64 65 76 75 82 86 88 90 89 89 84 88 87 84 75 74 72 86 81 81 65 61 67 70 69 70 76 90 86 80 63 64 64 64 72 88 75 76 90 87 88
60 58 62 69 77 82 84 91 92 90 88 80 86 87 86 92 80 74 69 88 90 84 80 61 67 62 70 79 89 93 91 82 76 76 75 66 62 60 61 78 89 92 91
63 64 72 76 80 82 90 90 92 92 89 93 90 89 90 85 87 65 65 78 83 90 88 78 65 71 74 75 78 88 87 83 93 90 81 86 76 72 70 67 69 76 82
68 76 81 85 85 88 89 94 94 93 94 93 94 90 83 76 66 64 63 65 68 83 89 74 73 75 76 76 73 75 80 86 83 86 85 86 85 83 77 70 72 75 73
81 85 89 88 91 91 91 94 94 94 91 90 86 86 76 66 71 62 64 68 66 72 73 69 76 76 78 72 73 74 73 81 87 88 84 78 74 76 90 88 70 69 87
83 87 88 89 93 91 86 85 91 92 91 87 87 86 84 79 78 78 86 97 89 84 80 82 74 76 74 71 68 68 68 75 87 88 87 79 71 74 77 74 83 93 95
83 84 84 85 85 89 84 88 85 86 86 90 91 88 92 92 86 73 74 88 89 77 86 85 85 78 76 72 73 71 71 71 83 84 86 85 80 79 76 74 82 93 96
81 80 79 82 82 81 87 92 83 86 82 76 73 84 92 70 65 62 63 67 69 72 96 98 89 85 83 81 81 78 76 75 80 85 85 84 85 87 84 78 80 90 95
77 76 76 76 78 85 86 88 94 87 78 76 75 73 69 71 64 63 66 72 76 84 100 95 93 90 88 83 81 80 82 76 83 84 88 87 90 88 88 87 83 83 90
75 76 76 80 83 83 84 87 87 92 94 93 79 76 72 69 66 67 72 81 99 94 100 96 95 92 90 88 86 83 82 80 86 85 88 92 91 92 91 88 86 89 90
79 79 80 78 74 81 84 85 83 84 87 90 89 81 89 72 70 75 75 99 100 100 99 96 93 92 92 90 88 86 85 87 90 89 91 91 91 92 92 92 88 86 90
79 80 78 82 87 88 87 87 86 86 88 88 90 89 96 94 99 100 99 100 100 100 98 98 94 93 92 91 90 88 87 88 90 90 90 91 91 92 92 92 91 91 88
86 89 93 93 90 87 88 87 82 84 84 87 85 88 98 96 98 99 100 100 100 100 98 97 96 95 92 91 90 89 88 86 89 89 89 90 91 93 92 92 93 90 90
92 94 95 94 88 87 87 80 80 80 80 79 80 86 84 87 94 97 98 99 99 100 98 99 96 95 94 93 93 92 92 89 91 90 89 89 91 92 92 91 92 90 90
93 94 94 90 88 88 86 84 82 79 80 83 85 80 89 97 97 98 99 99 99 94 90 96 95 94 90 88 88 91 93 92 93 92 91 91 91 92 92 92 92 92 92
94 94 89 90 88 85 85 85 81 80 82 88 91 95 92 96 98 98 97 99 97 93 89 92 91 93 88 89 88 88 85 89 94 76 88 92 92 91 92 92 93 93 93
94 90 89 88 86 84 86 85 82 86 89 88 93 91 95 95 95 97 98 97 95 90 83 85 87 86 85 86 89 87 88 92 87 72 75 91 92 93 92 92 93 93 94
90 88 86 85 86 85 84 83 86 85 91 92 94 95 94 95 95 96 96 96 91 84 84 82 80 82 82 83 85 91 89 90 75 76 72 77 92 92 92 92 93 93 94
Wind_Speed
15 13 12 11 11 10 11 10 10 7 8 7 7 5 4 3 3 4 3 3 4 6 8 9 11 10 8 8 8 9 10 11 15 24 18 20 20 19 16 16 18 19 17
13 13 12 11 12 12 10 10 8 8 7 7 6 5 4 3 3 4 4 3 5 9 10 10 12 9 10 10 9 12 12 12 13 21 22 19 22 18 19 21 17 16 18
13 14 13 14 14 13 11 10 9 9 8 7 7 6 5 4 4 4 5 7 8 8 9 11 11 11 12 10 12 12 12 11 12 14 18 15 18 16 18 18 20 19 17
15 15 15 14 13 11 10 9 9 9 9 7 6 6 5 4 5 6 8 7 7 9 10 11 12 13 14 14 13 14 14 14 14 15 16 16 15 15 15 15 17 13 16
16 15 15 12 12 11 10 9 9 8 7 6 6 5 5 4 5 7 7 6 9 10 11 12 12 15 23 23 14 14 14 13 13 14 16 15 15 15 16 13 16 15 18
17 15 14 14 12 12 12 12 10 9 8 7 6 6 7 5 11 12 10 7 9 12 12 12 12 16 20 27 29 32 27 18 18 15 16 18 20 17 16 15 16 15 18
16 15 15 15 15 14 12 12 10 10 9 9 7 7 6 7 12 11 12 7 9 10 13 14 14 12 17 18 25 32 31 33 34 24 23 21 22 20 19 19 18 17 19
16 16 16 16 15 14 14 12 10 9 10 9 7 6 6 6 11 10 11 8 8 12 14 14 15 16 16 19 20 20 20 18 19 18 23 23 22 20 20 20 21 21 19
17 18 18 18 17 15 13 13 12 10 9 8 7 6 7 6 10 9 10 5 8 11 13 13 13 15 24 29 21 21 21 19 21 35 39 40 40 40 34 18 17 17 18
20 19 17 17 18 17 16 14 10 9 10 7 7 7 7 6 9 9 9 4 5 8 10 12 17 21 28 31 22 18 21 19 18 21 22 26 30 26 38 24 15 18 16
15 15 16 16 16 15 13 11 11 9 9 7 7 6 7 8 7 8 10 5 6 7 6 9 10 25 30 32 30 16 20 22 21 15 19 12 15 18 16 17 19 18 18
16 16 15 15 11 12 14 11 10 9 8 6 5 5 5 5 5 5 10 13 14 6 8 9 13 28 30 29 23 28 32 24 13 12 14 13 13 13 15 17 21 21 19
16 16 15 13 12 13 13 13 10 8 7 6 6 5 4 3 2 7 10 13 14 11 8 17 27 27 27 19 26 29 21 13 12 12 13 13 13 14 16 17 20 23 21
15 15 14 13 13 12 9 9 8 9 8 7 5 5 3 3 2 4 6 4 8 7 13 8 16 20 21 20 14 15 12 13 13 13 12 13 15 14 14 13 16 12 13
14 14 14 10 12 12 9 9 9 7 8 7 6 4 4 3 4 6 4 2 3 9 7 6 8 10 11 11 11 13 12 13 13 12 13 14 14 13 13 13 13 15 14
17 14 13 11 11 12 12 10 12 13 14 12 11 7 2 5 3 4 7 11 13 15 3 4 8 9 10 12 12 13 13 16 14 15 14 14 15 14 14 14 13 13 15
18 17 14 14 11 10 9 12 12 10 14 13 11 10 6 4 2 4 7 11 11 9 1 5 7 9 10 11 12 13 15 15 17 15 15 15 13 14 16 13 13 13 14
17 24 14 13 13 12 10 10 9 11 10 8 10 9 5 1 1 4 9 7 3 5 1 6 8 10 11 11 12 13 14 15 15 16 16 13 14 14 14 13 12 13 13
16 14 17 14 11 12 11 10 9 10 8 8 5 8 3 3 5 7 9 2 2 2 3 6 7 9 10 11 12 13 15 15 16 17 15 15 14 13 14 13 13 18 18
16 21 15 14 14 13 11 10 9 8 8 7 6 4 2 3 2 1 2 1 2 2 3 5 8 9 10 11 12 14 14 16 16 16 17 15 14 13 14 14 13 14 13
12 12 18 12 11 12 11 10 8 8 8 6 5 4 10 4 3 2 1 2 1 2 4 6 7 9 10 11 12 13 15 16 16 17 18 17 16 15 14 13 13 14 14
12 13 11 12 11 10 10 9 9 8 8 7 6 3 9 3 4 0 2 2 3 1 4 5 7 7 9 10 12 14 15 18 17 17 20 19 16 16 15 15 14 13 14
13 14 13 11 10 13 10 9 8 7 6 6 6 5 2 2 2 1 2 3 2 4 6 5 7 8 9 10 11 12 15 18 17 18 21 20 18 17 16 16 16 14 13
15 14 13 12 10 9 9 9 7 8 6 5 5 2 2 3 2 1 2 3 3 4 6 6 7 8 11 11 11 13 15 17 13 18 25 20 19 22 17 18 16 19 16
13 13 12 11 10 9 9 8 7 6 6 5 4 3 2 2 1 2 3 3 4 5 7 8 7 9 11 18 18 21 25 30 18 24 18 21 24 27 21 17 19 17 17
12 13 10 10 9 8 8 8 7 6 5 4 3 2 2 2 1 2 2 4 4 6 7 7 9 12 15 13 17 24 27 28 22 26 19 18 20 20 20 22 27 18 20
Wind_Direction
184 183 179 177 169 159 165 162 161 151 147 142 146 160 179 202 229 244 253 279 277 273 272 270 271 276 276 276 273 271 268 263 267 286 286 296 293 292 292 294 290 288 282
180 177 180 168 166 164 164 160 152 143 136 136 141 157 184 214 229 241 255 256 256 264 265 267 271 281 279 276 272 268 266 267 271 276 286 293 291 294 288 285 287 287 286
175 178 175 174 173 170 161 154 145 143 140 144 155 174 191 209 229 251 261 259 259 261 266 268 275 274 271 268 267 269 268 269 267 268 276 282 287 292 287 282 280 277 271
175 179 178 175 172 158 148 146 146 142 146 154 165 176 183 213 238 245 253 258 264 267 271 270 272 269 270 271 265 263 263 261 259 260 264 271 273 280 276 281 279 275 278
175 176 178 165 157 148 143 137 132 141 150 153 155 170 200 222 238 241 248 256 264 275 274 276 274 269 271 275 280 275 269 263 261 261 261 262 264 270 269 276 277 286 280
173 172 164 157 151 147 145 147 146 146 152 156 168 185 207 225 245 249 258 255 272 286 285 279 278 278 272 278 282 284 281 279 275 271 270 262 260 261 264 268 270 273 284
168 164 161 159 157 155 149 151 160 163 162 175 181 196 212 229 250 254 264 282 283 282 282 284 283 276 279 279 277 280 280 277 274 276 274 269 274 273 272 272 269 271 276
167 164 161 163 161 154 156 160 156 160 169 173 186 193 210 234 248 259 279 282 271 275 276 280 284 288 290 293 291 286 281 275 271 263 264 267 263 263 264 269 272 273 272
173 172 169 164 160 161 162 162 161 161 165 170 164 185 212 236 257 264 279 264 269 273 282 292 296 303 297 303 302 292 285 283 279 278 275 274 266 259 256 262 257 260 262
181 174 168 166 162 164 164 166 160 159 158 157 179 182 205 225 249 258 284 247 263 275 283 305 305 309 307 307 304 302 294 294 295 283 271 264 265 266 267 272 275 269 272
166 166 164 165 161 157 153 151 153 154 143 165 172 196 206 216 231 262 285 283 272 288 310 306 303 304 317 318 312 317 297 298 305 307 292 262 255 254 252 247 251 255 261
159 160 164 159 152 147 149 140 143 141 147 160 180 195 201 180 220 276 294 304 310 324 309 308 300 317 320 324 324 315 318 319 308 303 300 296 281 262 249 249 248 246 247
160 159 156 152 145 149 147 143 144 152 151 169 179 179 173 186 194 281 305 306 330 320 317 311 327 320 322 322 322 322 330 308 307 306 302 299 292 291 292 271 255 248 245
160 157 156 153 149 149 143 154 151 148 162 168 180 170 168 181 211 252 252 263 295 323 321 335 319 319 318 318 319 318 315 312 308 308 302 301 297 290 284 281 280 254 243
164 159 159 156 160 153 151 162 146 155 159 165 158 173 162 177 238 273 341 305 334 324 10 322 317 324 323 325 324 315 317 315 311 314 307 304 299 292 293 293 286 277 242
166 169 165 161 166 160 147 136 152 152 160 167 168 169 207 221 284 355 351 359 354 355 11 316 318 321 323 321 320 318 317 321 314 316 311 305 298 295 297 294 290 280 274
170 166 158 156 168 151 142 144 150 156 162 161 163 175 161 201 39 28 15 21 359 10 359 310 318 325 317 319 317 320 316 320 310 315 310 303 296 303 299 291 290 289 282
171 165 164 158 158 147 153 150 154 150 163 162 171 163 144 129 102 53 43 33 335 347 299 327 326 316 315 318 315 319 315 317 314 318 310 307 309 301 297 291 287 284 283
171 172 152 154 146 146 144 146 150 145 158 145 155 157 100 111 119 63 55 124 254 321 302 327 305 304 309 311 312 316 316 311 317 319 318 318 311 303 295 288 284 281 276
165 158 157 141 140 136 137 140 144 143 144 147 150 145 152 94 76 24 19 302 336 290 298 311 307 311 309 313 314 318 317 313 321 323 325 320 313 305 298 292 284 280 273
149 144 139 130 138 137 136 138 144 142 138 139 147 165 138 120 140 102 270 287 301 319 311 299 306 304 308 313 317 321 314 314 317 326 328 325 318 312 306 295 288 278 268
138 132 132 128 130 130 128 132 136 137 141 148 143 134 114 154 94 207 275 290 293 274 268 273 292 296 304 312 319 318 315 318 315 334 331 327 322 320 316 309 300 286 276
131 127 122 121 122 121 118 120 125 132 138 134 117 121 177 116 113 256 312 286 350 310 296 279 286 305 312 318 315 314 319 319 318 340 332 328 327 328 323 318 311 300 287
122 123 124 121 122 120 125 122 126 132 132 115 109 179 176 117 175 302 301 342 304 285 289 285 288 292 315 318 318 313 319 318 327 342 337 331 330 330 330 327 319 311 292
115 118 120 123 122 124 124 120 127 120 112 133 147 190 124 126 74 354 334 319 292 304 307 299 295 308 316 319 311 316 320 321 350 347 339 338 336 336 336 335 331 326 324
109 109 116 111 115 125 121 123 117 119 130 138 157 129 140 90 17 342 337 308 304 311 306 298 304 310 316 317 314 321 325 328 358 353 343 345 343 342 342 344 344 344 342